Tracking 29892 objects as of 21-Nov-2024
HD Live streaming from Space Station
objects crossing your sky now

STARLINK-6044

Track STARLINK-6044 now!
10-day predictions
STARLINK-6044 is classified as:


NORAD ID: 56479
Int'l Code: 2023-064AH
Perigee: 577.6 km
Apogee: 580.8 km
Inclination: 70.0 °
Period: 96.1 minutes
Semi major axis: 6950 km
RCS: Unknown
Launch date: May 10, 2023
Source: United States (US)
Launch site: AIR FORCE WESTERN TEST RANGE (AFWTR)
Your satellite tracking list
Your tracking list is empty




NASA's NSSDC Master Catalog

Two Line Element Set (TLE):
1 56479U 23064AH  24325.76417581 -.00000184  00000-0 -76325-5 0  9994
2 56479  70.0006 239.2330 0002278 252.9163 107.1746 14.98329060 84757
Source of the keplerian elements: AFSPC